| time (UTC) | temp F | wind direction | speed knots | gust knots | rain 1hr in | rain 24hr in | rain mn in | humidity % | barometer mb |
| 20260509233459 | 61 | 276 | 3.5 | 14.8 | 0.00 | 0.00 | 0.00 | 45 | 1003.8 |
| 20260509232959 | 62 | 330 | 4.3 | 14.8 | 0.00 | 0.00 | 0.00 | 44 | 1003.7 |
| 20260509232459 | 62 | 328 | 4.3 | 11.3 | 0.00 | 0.00 | 0.00 | 43 | 1003.7 |
| 20260509231959 | 62 | 255 | 2.6 | 13.0 | 0.00 | 0.00 | 0.00 | 43 | 1003.7 |
| 20260509231459 | 62 | 7 | 5.2 | 13.0 | 0.00 | 0.00 | 0.00 | 42 | 1003.6 |
| 20260509230959 | 62 | 316 | 5.2 | 12.2 | 0.00 | 0.00 | 0.00 | 41 | 1003.7 |
| 20260509230459 | 63 | 271 | 3.5 | 10.4 | 0.00 | 0.00 | 0.00 | 41 | 1003.5 |
| 20260509230001 | 63 | 291 | 5.2 | 15.6 | 0.00 | 0.00 | 0.00 | 40 | 1003.5 |
| 20260509225459 | 63 | 1 | 7.0 | 15.6 | 0.00 | 0.00 | 0.00 | 38 | 1003.3 |
| 20260509224958 | 63 | 297 | 3.5 | 12.2 | 0.00 | 0.00 | 0.00 | 39 | 1003.1 |
| 20260509224459 | 64 | 312 | 4.3 | 13.0 | 0.00 | 0.00 | 0.00 | 38 | 1003.0 |
| 20260509223958 | 64 | 236 | 3.5 | 13.0 | 0.00 | 0.00 | 0.00 | 39 | 1003.0 |
| 20260509223459 | 64 | 295 | 5.2 | 13.9 | 0.00 | 0.00 | 0.00 | 39 | 1002.9 |
| 20260509222959 | 65 | 266 | 7.0 | 13.9 | 0.00 | 0.00 | 0.00 | 37 | 1002.7 |
| 20260509222458 | 65 | 291 | 4.3 | 12.2 | 0.00 | 0.00 | 0.00 | 40 | 1002.5 |
| 20260509221958 | 66 | 259 | 2.6 | 12.2 | 0.00 | 0.00 | 0.00 | 39 | 1002.5 |
| 20260509221458 | 66 | 285 | 3.5 | 11.3 | 0.00 | 0.00 | 0.00 | 41 | 1002.3 |
| 20260509220958 | 66 | 303 | 5.2 | 11.3 | 0.00 | 0.00 | 0.00 | 40 | 1002.2 |
| 20260509220458 | 66 | 276 | 3.5 | 13.9 | 0.00 | 0.00 | 0.00 | 42 | 1002.2 |
| 20260509215959 | 66 | 313 | 3.5 | 13.9 | 0.00 | 0.00 | 0.00 | 41 | 1002.1 |
| 20260509215458 | 66 | 306 | 5.2 | 12.2 | 0.00 | 0.00 | 0.00 | 41 | 1002.1 |
| 20260509214959 | 67 | 314 | 3.5 | 9.6 | 0.00 | 0.00 | 0.00 | 41 | 1002.0 |
| 20260509214459 | 66 | 283 | 3.5 | 8.7 | 0.00 | 0.00 | 0.00 | 43 | 1001.9 |
| 20260509213959 | 67 | 328 | 3.5 | 9.6 | 0.00 | 0.00 | 0.00 | 41 | 1001.9 |
| 20260509213458 | 67 | 214 | 4.3 | 9.6 | 0.00 | 0.00 | 0.00 | 43 | 1001.7 |
| 20260509212959 | 67 | 271 | 3.5 | 10.4 | 0.00 | 0.00 | 0.00 | 42 | 1001.7 |
| 20260509212458 | 67 | 261 | 4.3 | 10.4 | 0.00 | 0.00 | 0.00 | 41 | 1001.8 |
| 20260509211959 | 67 | 295 | 1.7 | 10.4 | 0.00 | 0.00 | 0.00 | 42 | 1001.7 |
| 20260509211500 | 67 | 353 | 2.6 | 13.0 | 0.00 | 0.00 | 0.00 | 43 | 1001.7 |
| 20260509210959 | 67 | 201 | 3.5 | 10.4 | 0.00 | 0.00 | 0.00 | 43 | 1001.6 |
| 20260509210459 | 67 | 276 | 3.5 | 10.4 | 0.00 | 0.00 | 0.00 | 42 | 1001.7 |
| 20260509205958 | 67 | 350 | 4.3 | 10.4 | 0.00 | 0.00 | 0.00 | 41 | 1001.7 |
| 20260509205458 | 67 | 266 | 2.6 | 13.0 | 0.00 | 0.00 | 0.00 | 42 | 1001.6 |
| 20260509204959 | 66 | 247 | 5.2 | 13.0 | 0.00 | 0.00 | 0.00 | 41 | 1001.6 |
| 20260509204459 | 67 | 309 | 4.3 | 9.6 | 0.00 | 0.00 | 0.00 | 43 | 1001.7 |
| 20260509203959 | 67 | 242 | 3.5 | 12.2 | 0.00 | 0.00 | 0.00 | 42 | 1001.8 |
| 20260509203459 | 66 | 228 | 5.2 | 12.2 | 0.00 | 0.00 | 0.00 | 42 | 1001.7 |
| 20260509202959 | 66 | 240 | 3.5 | 13.0 | 0.00 | 0.00 | 0.00 | 43 | 1001.8 |
| 20260509202458 | 67 | 250 | 5.2 | 11.3 | 0.00 | 0.00 | 0.00 | 43 | 1001.8 |
| 20260509191959 | 64 | 284 | 5.2 | 11.3 | 0.00 | 0.00 | 0.00 | 48 | 1001.7 |
| 20260509191459 | 64 | 259 | 5.2 | 15.6 | 0.00 | 0.00 | 0.00 | 50 | 1001.7 |
| 20260509190959 | 64 | 271 | 4.3 | 13.9 | 0.00 | 0.00 | 0.00 | 51 | 1001.7 |
| 20260509190459 | 63 | 340 | 6.1 | 13.9 | 0.00 | 0.00 | 0.00 | 53 | 1001.7 |
| 20260509190000 | 63 | 288 | 7.0 | 12.2 | 0.00 | 0.00 | 0.00 | 53 | 1001.6 |
| 20260509185459 | 63 | 244 | 5.2 | 15.6 | 0.00 | 0.00 | 0.00 | 53 | 1001.6 |
| 20260509184958 | 63 | 188 | 5.2 | 13.0 | 0.00 | 0.00 | 0.00 | 55 | 1001.5 |
| 20260509184500 | 64 | 233 | 5.2 | 14.8 | 0.00 | 0.00 | 0.00 | 53 | 1001.6 |
| 20260509183958 | 64 | 266 | 6.1 | 14.8 | 0.00 | 0.00 | 0.00 | 53 | 1001.4 |
| 20260509183459 | 64 | 240 | 3.5 | 11.3 | 0.00 | 0.00 | 0.00 | 58 | 1001.2 |
| 20260509182958 | 63 | 226 | 5.2 | 14.8 | 0.00 | 0.00 | 0.00 | 54 | 1001.2 |
| 20260509182459 | 62 | 282 | 4.3 | 14.8 | 0.00 | 0.00 | 0.00 | 55 | 1001.1 |
| 20260509181959 | 62 | 198 | 7.0 | 20.0 | 0.00 | 0.00 | 0.00 | 53 | 1001.2 |
| 20260509181458 | 62 | 224 | 5.2 | 20.0 | 0.00 | 0.00 | 0.00 | 55 | 1001.4 |
| 20260509180959 | 61 | 239 | 3.5 | 10.4 | 0.00 | 0.00 | 0.00 | 57 | 1001.4 |
| 20260509180459 | 61 | 244 | 5.2 | 13.9 | 0.00 | 0.00 | 0.00 | 54 | 1001.3 |
| 20260509175957 | 61 | 227 | 3.5 | 11.3 | 0.00 | 0.00 | 0.00 | 58 | 1001.2 |
| 20260509175458 | 60 | 236 | 2.6 | 10.4 | 0.00 | 0.00 | 0.00 | 59 | 1001.2 |
| 20260509174957 | 60 | 213 | 3.5 | 10.4 | 0.00 | 0.00 | 0.00 | 59 | 1001.2 |
| 20260509170957 | 56 | 248 | 2.6 | 7.8 | 0.00 | 0.00 | 0.00 | 71 | 1002.4 |
| 20260509170457 | 56 | 225 | 1.7 | 7.0 | 0.00 | 0.00 | 0.00 | 70 | 1002.5 |
| 20260509170001 | 56 | 244 | 2.6 | 7.0 | 0.00 | 0.00 | 0.00 | 69 | 1002.7 |
| 20260509165459 | 56 | 321 | 0.9 | 5.2 | 0.00 | 0.00 | 0.00 | 68 | 1002.6 |
| 20260509164959 | 56 | 295 | 1.7 | 5.2 | 0.00 | 0.00 | 0.00 | 66 | 1002.6 |
| 20260509164458 | 57 | 251 | 2.6 | 9.6 | 0.00 | 0.00 | 0.00 | 66 | 1002.6 |
| 20260509163959 | 57 | 289 | 3.5 | 9.6 | 0.00 | 0.00 | 0.00 | 66 | 1002.6 |
| 20260509163459 | 57 | 354 | 4.3 | 9.6 | 0.00 | 0.00 | 0.00 | 66 | 1002.6 |
| 20260509162958 | 57 | 297 | 4.3 | 8.7 | 0.00 | 0.00 | 0.00 | 65 | 1002.6 |
| 20260509162459 | 58 | 298 | 1.7 | 11.3 | 0.00 | 0.00 | 0.00 | 68 | 1002.6 |
| 20260509161958 | 57 | 311 | 3.5 | 11.3 | 0.00 | 0.00 | 0.00 | 67 | 1002.6 |
| 20260509161458 | 58 | 356 | 4.3 | 11.3 | 0.00 | 0.00 | 0.00 | 67 | 1002.5 |
| 20260509160958 | 58 | 305 | 4.3 | 10.4 | 0.00 | 0.00 | 0.00 | 66 | 1002.4 |
| 20260509160459 | 58 | 311 | 4.3 | 10.4 | 0.00 | 0.00 | 0.00 | 67 | 1002.1 |
| 20260509160000 | 59 | 240 | 4.3 | 10.4 | 0.00 | 0.00 | 0.00 | 68 | 1001.9 |
| 20260509155458 | 59 | 325 | 2.6 | 10.4 | 0.00 | 0.00 | 0.00 | 68 | 1001.9 |
| 20260509154958 | 60 | 251 | 4.3 | 13.0 | 0.00 | 0.00 | 0.00 | 66 | 1001.8 |
| 20260509154458 | 60 | 331 | 5.2 | 13.0 | 0.00 | 0.00 | 0.00 | 67 | 1001.7 |
| 20260509153959 | 61 | 242 | 5.2 | 13.9 | 0.00 | 0.00 | 0.00 | 67 | 1001.6 |
| 20260509153458 | 62 | 37 | 4.3 | 13.9 | 0.00 | 0.00 | 0.00 | 66 | 1001.3 |
| 20260509152959 | 63 | 309 | 5.2 | 12.2 | 0.00 | 0.00 | 0.00 | 64 | 1001.1 |
| 20260509152459 | 63 | 224 | 5.2 | 12.2 | 0.00 | 0.00 | 0.00 | 63 | 1000.7 |
| 20260509151958 | 65 | 283 | 4.3 | 10.4 | 0.00 | 0.00 | 0.00 | 63 | 1000.6 |
| 20260509151459 | 64 | 257 | 3.5 | 16.5 | 0.00 | 0.00 | 0.00 | 66 | 1000.5 |
| 20260509150959 | 63 | 307 | 5.2 | 16.5 | 0.00 | 0.00 | 0.00 | 66 | 1000.5 |
| 20260509150459 | 64 | 271 | 5.2 | 13.0 | 0.00 | 0.00 | 0.00 | 64 | 1000.2 |
| 20260509145959 | 63 | 221 | 3.5 | 13.0 | 0.00 | 0.00 | 0.00 | 67 | 1000.1 |
| 20260509145459 | 62 | 190 | 3.5 | 13.0 | 0.00 | 0.00 | 0.00 | 66 | 1000.3 |
| 20260509144959 | 63 | 305 | 4.3 | 8.7 | 0.00 | 0.00 | 0.00 | 65 | 1000.1 |
| 20260509144458 | 62 | 321 | 4.3 | 9.6 | 0.00 | 0.00 | 0.00 | 65 | 1000.1 |
| 20260509143958 | 63 | 301 | 3.5 | 9.6 | 0.00 | 0.00 | 0.00 | 65 | 1000.3 |
| 20260509143459 | 63 | 259 | 3.5 | 14.8 | 0.00 | 0.00 | 0.00 | 68 | 1000.2 |
| 20260509142958 | 63 | 218 | 3.5 | 14.8 | 0.00 | 0.00 | 0.00 | 66 | 1000.0 |
| 20260509142459 | 64 | 241 | 6.1 | 13.9 | 0.00 | 0.00 | 0.00 | 66 | 1000.0 |
| 20260509141958 | 63 | 217 | 7.0 | 13.9 | 0.00 | 0.00 | 0.00 | 68 | 1000.0 |
| 20260509141459 | 63 | 199 | 7.0 | 15.6 | 0.00 | 0.00 | 0.00 | 67 | 1000.1 |
| 20260509140959 | 63 | 249 | 6.1 | 15.6 | 0.00 | 0.00 | 0.00 | 69 | 1000.1 |
| 20260509140459 | 62 | 266 | 6.1 | 14.8 | 0.00 | 0.00 | 0.00 | 69 | 1000.0 |
| 20260509135959 | 62 | 288 | 6.1 | 18.2 | 0.00 | 0.00 | 0.00 | 69 | 999.9 |
| 20260509135500 | 61 | 227 | 7.0 | 18.2 | 0.00 | 0.00 | 0.00 | 70 | 1000.0 |
| 20260509135001 | 61 | 262 | 7.8 | 17.4 | 0.00 | 0.00 | 0.00 | 69 | 999.9 |
| 20260509134459 | 62 | 220 | 6.1 | 10.4 | 0.00 | 0.00 | 0.00 | 69 | 1000.1 |
| 20260509133959 | 61 | 314 | 3.5 | 13.9 | 0.00 | 0.00 | 0.00 | 71 | 1000.1 |
| 20260509133459 | 61 | 188 | 7.8 | 14.8 | 0.00 | 0.00 | 0.00 | 70 | 1000.0 |
| 20260509132959 | 61 | 211 | 7.0 | 14.8 | 0.00 | 0.00 | 0.00 | 70 | 1000.3 |
| 20260509132500 | 61 | 246 | 6.1 | 14.8 | 0.00 | 0.00 | 0.00 | 70 | 1000.0 |
| 20260509131959 | 60 | 213 | 6.1 | 10.4 | 0.00 | 0.00 | 0.00 | 70 | 1000.1 |
| 20260509131459 | 60 | 249 | 4.3 | 9.6 | 0.00 | 0.00 | 0.00 | 72 | 1000.2 |
| 20260509130958 | 59 | 201 | 4.3 | 8.7 | 0.00 | 0.00 | 0.00 | 72 | 1000.1 |
| 20260509130459 | 59 | 271 | 2.6 | 7.8 | 0.00 | 0.00 | 0.00 | 73 | 1000.2 |
| 20260509130000 | 58 | 266 | 2.6 | 9.6 | 0.00 | 0.00 | 0.00 | 75 | 1000.3 |
| 20260509125459 | 57 | 237 | 3.5 | 10.4 | 0.00 | 0.00 | 0.00 | 75 | 1000.2 |
| 20260509124959 | 57 | 223 | 4.3 | 10.4 | 0.00 | 0.00 | 0.00 | 76 | 1000.2 |
| 20260509124459 | 57 | 206 | 3.5 | 8.7 | 0.00 | 0.00 | 0.00 | 78 | 1000.4 |
| 20260509123959 | 56 | 222 | 4.3 | 8.7 | 0.00 | 0.00 | 0.00 | 80 | 1000.5 |
| 20260509123459 | 55 | 244 | 4.3 | 9.6 | 0.00 | 0.00 | 0.00 | 81 | 1000.6 |
| 20260509122958 | 55 | 212 | 4.3 | 9.6 | 0.00 | 0.00 | 0.00 | 82 | 1000.8 |
| 20260509122459 | 54 | 174 | 3.5 | 9.6 | 0.00 | 0.00 | 0.00 | 83 | 1000.8 |
| 20260509121959 | 54 | 232 | 3.5 | 9.6 | 0.00 | 0.00 | 0.00 | 83 | 1000.8 |
| 20260509121459 | 54 | 227 | 3.5 | 8.7 | 0.00 | 0.00 | 0.00 | 83 | 1000.9 |
| 20260509121000 | 53 | 238 | 3.5 | 7.8 | 0.00 | 0.00 | 0.00 | 83 | 1000.8 |
| 20260509120459 | 53 | 229 | 2.6 | 7.8 | 0.00 | 0.00 | 0.00 | 84 | 1000.5 |
| 20260509115958 | 53 | 242 | 3.5 | 7.8 | 0.00 | 0.00 | 0.00 | 84 | 1000.5 |
| 20260509115459 | 53 | 292 | 3.5 | 7.8 | 0.00 | 0.00 | 0.00 | 84 | 1000.5 |
| 20260509114958 | 53 | 190 | 2.6 | 5.2 | 0.00 | 0.00 | 0.00 | 84 | 1000.5 |
| 20260509114459 | 53 | 207 | 2.6 | 7.0 | 0.00 | 0.00 | 0.00 | 84 | 1000.5 |
| 20260509113958 | 53 | 221 | 2.6 | 7.8 | 0.00 | 0.00 | 0.00 | 85 | 1000.7 |
| 20260509113459 | 52 | 205 | 3.5 | 7.0 | 0.00 | 0.00 | 0.00 | 85 | 1000.7 |
| 20260509112959 | 52 | 209 | 2.6 | 7.0 | 0.00 | 0.00 | 0.00 | 85 | 1000.8 |
| 20260509112459 | 52 | 164 | 2.6 | 7.0 | 0.00 | 0.00 | 0.00 | 85 | 1000.7 |
| 20260509111959 | 52 | 208 | 2.6 | 7.0 | 0.00 | 0.00 | 0.00 | 85 | 1000.7 |
| 20260509111459 | 52 | 235 | 1.7 | 7.8 | 0.00 | 0.00 | 0.00 | 85 | 1000.8 |
| 20260509110958 | 52 | 227 | 2.6 | 8.7 | 0.00 | 0.00 | 0.00 | 85 | 1000.8 |
| 20260509110459 | 52 | 229 | 4.3 | 8.7 | 0.00 | 0.00 | 0.00 | 85 | 1000.8 |
| 20260509110002 | 52 | 235 | 2.6 | 7.8 | 0.00 | 0.00 | 0.00 | 85 | 1000.7 |
| 20260509105459 | 52 | 218 | 4.3 | 7.8 | 0.00 | 0.00 | 0.00 | 85 | 1000.7 |
| 20260509104958 | 52 | 171 | 2.6 | 7.0 | 0.00 | 0.00 | 0.00 | 85 | 1000.6 |
| 20260509104458 | 52 | 172 | 2.6 | 7.0 | 0.00 | 0.00 | 0.00 | 85 | 1000.8 |
| 20260509103959 | 51 | 266 | 2.6 | 7.0 | 0.00 | 0.00 | 0.00 | 85 | 1000.8 |
| 20260509103459 | 51 | 258 | 1.7 | 8.7 | 0.00 | 0.00 | 0.00 | 85 | 1000.9 |
| 20260509102959 | 51 | 249 | 1.7 | 7.8 | 0.00 | 0.00 | 0.00 | 85 | 1001.0 |
| 20260509102459 | 51 | 251 | 3.5 | 7.8 | 0.00 | 0.00 | 0.00 | 85 | 1001.1 |
| 20260509101959 | 51 | 216 | 2.6 | 5.2 | 0.00 | 0.00 | 0.00 | 85 | 1001.2 |
| 20260509101459 | 51 | 207 | 2.6 | 6.1 | 0.00 | 0.00 | 0.00 | 85 | 1001.2 |
| 20260509100959 | 51 | 168 | 2.6 | 7.8 | 0.00 | 0.00 | 0.00 | 84 | 1001.1 |
| 20260509100500 | 51 | 234 | 2.6 | 5.2 | 0.00 | 0.00 | 0.00 | 84 | 1001.2 |
| 20260509100000 | 51 | 216 | 1.7 | 5.2 | 0.00 | 0.00 | 0.00 | 84 | 1001.3 |
| 20260509095458 | 51 | 201 | 2.6 | 5.2 | 0.00 | 0.00 | 0.00 | 84 | 1001.3 |
| 20260509094959 | 51 | 200 | 3.5 | 5.2 | 0.00 | 0.00 | 0.00 | 83 | 1001.4 |
| 20260509094458 | 51 | 266 | 3.5 | 5.2 | 0.00 | 0.00 | 0.00 | 83 | 1001.4 |
| 20260509083500 | 51 | 243 | 0.9 | 7.0 | 0.00 | 0.00 | 0.00 | 78 | 1001.9 |
| 20260509082958 | 51 | 192 | 1.7 | 6.1 | 0.00 | 0.00 | 0.00 | 78 | 1002.0 |
| 20260509082458 | 51 | 239 | 2.6 | 5.2 | 0.00 | 0.00 | 0.00 | 77 | 1002.1 |
| 20260509081958 | 51 | 159 | 2.6 | 6.1 | 0.00 | 0.00 | 0.00 | 76 | 1002.1 |
| 20260509081459 | 51 | 171 | 2.6 | 4.3 | 0.00 | 0.00 | 0.00 | 75 | 1002.1 |
| 20260509080958 | 51 | 207 | 1.7 | 6.1 | 0.00 | 0.00 | 0.00 | 74 | 1002.1 |
| 20260509073459 | 51 | 217 | 1.7 | 3.5 | 0.00 | 0.00 | 0.00 | 66 | 1002.6 |
| 20260509072959 | 51 | 220 | 2.6 | 6.1 | 0.00 | 0.00 | 0.00 | 65 | 1002.6 |
| 20260509072459 | 51 | 203 | 0.9 | 7.0 | 0.00 | 0.00 | 0.00 | 63 | 1002.6 |
| 20260509071959 | 51 | 241 | 2.6 | 7.0 | 0.00 | 0.00 | 0.00 | 62 | 1002.7 |
| 20260509071458 | 52 | 219 | 0.9 | 7.8 | 0.00 | 0.00 | 0.00 | 61 | 1002.8 |
| 20260509070958 | 52 | 276 | 3.5 | 7.8 | 0.00 | 0.00 | 0.00 | 61 | 1002.7 |
| 20260509070458 | 52 | 221 | 3.5 | 7.0 | 0.00 | 0.00 | 0.00 | 61 | 1002.7 |
| 20260509065958 | 52 | 209 | 0.9 | 7.0 | 0.00 | 0.00 | 0.00 | 60 | 1002.8 |
| 20260509065458 | 52 | 201 | 2.6 | 7.0 | 0.00 | 0.00 | 0.00 | 59 | 1002.7 |
| 20260509064958 | 52 | 209 | 2.6 | 7.0 | 0.00 | 0.00 | 0.00 | 58 | 1002.9 |
| 20260509064458 | 52 | 266 | 2.6 | 7.0 | 0.00 | 0.00 | 0.00 | 56 | 1002.9 |
| 20260509063958 | 52 | 244 | 0.9 | 6.1 | 0.00 | 0.00 | 0.00 | 53 | 1003.0 |
| 20260509063459 | 52 | 247 | 1.7 | 6.1 | 0.00 | 0.00 | 0.00 | 51 | 1003.1 |
| 20260509062959 | 51 | 253 | 2.6 | 5.2 | 0.00 | 0.00 | 0.00 | 48 | 1003.1 |
| 20260509062458 | 51 | 146 | 2.6 | 7.8 | 0.00 | 0.00 | 0.00 | 45 | 1003.1 |
| 20260509061959 | 51 | 103 | 2.6 | 7.8 | 0.00 | 0.00 | 0.00 | 43 | 1003.1 |
| 20260509061459 | 51 | 204 | 0.9 | 7.0 | 0.00 | 0.00 | 0.00 | 41 | 1003.1 |
| 20260509060958 | 50 | 176 | 2.6 | 7.0 | 0.00 | 0.00 | 0.00 | 40 | 1003.3 |
| 20260509060458 | 50 | 258 | 1.7 | 5.2 | 0.00 | 0.00 | 0.00 | 40 | 1003.4 |
| 20260509055958 | 50 | 181 | 0.9 | 5.2 | 0.00 | 0.00 | 0.00 | 40 | 1003.4 |
| 20260509055459 | 50 | 199 | 1.7 | 4.3 | 0.00 | 0.00 | 0.00 | 40 | 1003.5 |
| 20260509054958 | 50 | 190 | 1.7 | 5.2 | 0.00 | 0.00 | 0.00 | 40 | 1003.5 |
| 20260509054458 | 50 | 190 | 0.9 | 5.2 | 0.00 | 0.00 | 0.00 | 39 | 1003.5 |
| 20260509053958 | 50 | 240 | 1.7 | 3.5 | 0.00 | 0.00 | 0.00 | 39 | 1003.6 |
| 20260509053458 | 49 | 169 | 0.9 | 2.6 | 0.00 | 0.00 | 0.00 | 40 | 1003.6 |
| 20260509052959 | 49 | 155 | 0.9 | 2.6 | 0.00 | 0.00 | 0.00 | 40 | 1003.7 |
| 20260509052458 | 49 | 243 | 0.0 | 3.5 | 0.00 | 0.00 | 0.00 | 41 | 1003.7 |
| 20260509051959 | 49 | 203 | 0.9 | 3.5 | 0.00 | 0.00 | 0.00 | 41 | 1003.6 |
| 20260509051459 | 49 | 218 | 0.9 | 3.5 | 0.00 | 0.00 | 0.00 | 41 | 1003.8 |
| 20260509050958 | 48 | 285 | 0.9 | 4.3 | 0.00 | 0.00 | 0.00 | 42 | 1003.8 |
| 20260509050459 | 48 | 147 | 1.7 | 4.3 | 0.00 | 0.00 | 0.00 | 42 | 1003.8 |
| 20260509045958 | 47 | 222 | 0.9 | 3.5 | 0.00 | 0.00 | 0.00 | 43 | 1003.9 |
| 20260509045458 | 47 | 209 | 0.9 | 3.5 | 0.00 | 0.00 | 0.00 | 43 | 1003.9 |
| 20260509044958 | 46 | 223 | 0.9 | 2.6 | 0.00 | 0.00 | 0.00 | 44 | 1003.7 |
| 20260509044459 | 46 | 105 | 0.0 | 2.6 | 0.00 | 0.00 | 0.00 | 45 | 1003.8 |
| 20260509043958 | 45 | 145 | 0.0 | 1.7 | 0.00 | 0.00 | 0.00 | 45 | 1003.8 |
| 20260509043459 | 45 | 130 | 0.0 | 1.7 | 0.00 | 0.00 | 0.00 | 47 | 1003.8 |
| 20260509042958 | 44 | 99 | 0.0 | 3.5 | 0.00 | 0.00 | 0.00 | 48 | 1003.9 |
| 20260509042459 | 44 | 151 | 0.9 | 3.5 | 0.00 | 0.00 | 0.00 | 48 | 1003.8 |
| 20260509041958 | 44 | 224 | 0.9 | 2.6 | 0.00 | 0.00 | 0.00 | 50 | 1004.0 |
| 20260509041458 | 44 | 87 | 0.0 | 1.7 | 0.00 | 0.00 | 0.00 | 51 | 1004.0 |
| 20260509040958 | 44 | 193 | 0.9 | 1.7 | 0.00 | 0.00 | 0.00 | 55 | 1004.0 |
| 20260509040458 | 44 | 182 | 0.0 | 0.9 | 0.00 | 0.00 | 0.00 | 59 | 1004.1 |
| 20260509040004 | 44 | 182 | 0.0 | 0.9 | 0.00 | 0.00 | 0.00 | 59 | 1004.2 |
| 20260509035459 | 45 | 182 | 0.0 | 0.9 | 0.00 | 0.00 | 0.00 | 59 | 1004.2 |
| 20260509034959 | 45 | 182 | 0.0 | 0.9 | 0.00 | 0.00 | 0.00 | 59 | 1004.2 |
| 20260509034459 | 45 | 182 | 0.0 | 0.9 | 0.00 | 0.00 | 0.00 | 56 | 1004.5 |
| 20260509034000 | 45 | 176 | 0.0 | 0.9 | 0.00 | 0.00 | 0.00 | 55 | 1004.7 |
| 20260509033459 | 45 | 168 | 0.0 | 0.9 | 0.00 | 0.00 | 0.00 | 53 | 1004.6 |
| 20260509032959 | 45 | 168 | 0.0 | 0.9 | 0.00 | 0.00 | 0.00 | 52 | 1004.5 |
| 20260509032459 | 45 | 165 | 0.0 | 0.9 | 0.00 | 0.00 | 0.00 | 53 | 1004.5 |
| 20260509031959 | 45 | 241 | 0.0 | 0.9 | 0.00 | 0.00 | 0.00 | 53 | 1004.6 |
| 20260509031459 | 45 | 241 | 0.0 | 0.9 | 0.00 | 0.00 | 0.00 | 52 | 1004.7 |
| 20260509030958 | 45 | 246 | 0.0 | 1.7 | 0.00 | 0.00 | 0.00 | 52 | 1004.7 |
| 20260509030459 | 45 | 250 | 0.9 | 1.7 | 0.00 | 0.00 | 0.00 | 53 | 1005.0 |
| 20260509025959 | 45 | 246 | 0.0 | 1.7 | 0.00 | 0.00 | 0.00 | 54 | 1004.8 |
| 20260509025458 | 46 | 246 | 0.0 | 1.7 | 0.00 | 0.00 | 0.00 | 53 | 1004.9 |
| 20260509025000 | 46 | 246 | 0.0 | 0.9 | 0.00 | 0.00 | 0.00 | 56 | 1005.0 |
| 20260509024459 | 46 | 246 | 0.0 | 0.9 | 0.00 | 0.00 | 0.00 | 55 | 1005.1 |
| 20260509024000 | 47 | 246 | 0.0 | 0.9 | 0.00 | 0.00 | 0.00 | 55 | 1004.9 |
| 20260509023459 | 47 | 246 | 0.0 | 0.9 | 0.00 | 0.00 | 0.00 | 55 | 1005.1 |
| 20260509022959 | 48 | 246 | 0.0 | 0.9 | 0.00 | 0.00 | 0.00 | 54 | 1005.1 |
| 20260509022500 | 48 | 246 | 0.0 | 0.0 | 0.00 | 0.00 | 0.00 | 53 | 1005.0 |
| 20260509014959 | 51 | 246 | 0.0 | 0.9 | 0.00 | 0.00 | 0.00 | 43 | 1004.9 |
| 20260509014458 | 51 | 246 | 0.0 | 0.9 | 0.00 | 0.00 | 0.00 | 43 | 1004.9 |
| 20260509013959 | 52 | 246 | 0.0 | 0.9 | 0.00 | 0.00 | 0.00 | 43 | 1004.9 |
| 20260509013459 | 53 | 246 | 0.0 | 0.0 | 0.00 | 0.00 | 0.00 | 41 | 1004.9 |
| 20260509012959 | 53 | 246 | 0.0 | 0.0 | 0.00 | 0.00 | 0.00 | 41 | 1005.0 |
| 20260509012459 | 54 | 246 | 0.0 | 0.0 | 0.00 | 0.00 | 0.00 | 40 | 1004.9 |
| 20260509011958 | 54 | 246 | 0.0 | 0.0 | 0.00 | 0.00 | 0.00 | 40 | 1004.9 |
| 20260509011500 | 55 | 246 | 0.0 | 0.0 | 0.00 | 0.00 | 0.00 | 39 | 1005.0 |
| 20260509010959 | 56 | 246 | 0.0 | 0.0 | 0.00 | 0.00 | 0.00 | 38 | 1004.9 |
| 20260509010500 | 56 | 246 | 0.0 | 0.0 | 0.00 | 0.00 | 0.00 | 38 | 1004.9 |
| 20260509010001 | 57 | 246 | 0.0 | 0.0 | 0.00 | 0.00 | 0.00 | 37 | 1005.0 |
| 20260509005500 | 58 | 246 | 0.0 | 0.0 | 0.00 | 0.00 | 0.00 | 36 | 1005.0 |
| 20260509005001 | 58 | 246 | 0.0 | 0.0 | 0.00 | 0.00 | 0.00 | 36 | 1005.0 |
| 20260509004500 | 59 | 246 | 0.0 | 0.0 | 0.00 | 0.00 | 0.00 | 35 | 1005.0 |
| 20260509004000 | 59 | 246 | 0.0 | 0.9 | 0.00 | 0.00 | 0.00 | 35 | 1005.0 |
| 20260509003501 | 59 | 246 | 0.0 | 0.9 | 0.00 | 0.00 | 0.00 | 34 | 1004.9 |
| 20260509003000 | 60 | 246 | 0.0 | 0.0 | 0.00 | 0.00 | 0.00 | 33 | 1005.0 |
| 20260509002500 | 60 | 246 | 0.0 | 0.9 | 0.00 | 0.00 | 0.00 | 32 | 1005.0 |
| 20260509002000 | 60 | 246 | 0.0 | 1.7 | 0.00 | 0.00 | 0.00 | 32 | 1005.0 |
| 20260509001500 | 60 | 238 | 0.0 | 1.7 | 0.00 | 0.00 | 0.00 | 32 | 1005.1 |
| 20260509001000 | 60 | 253 | 0.0 | 3.5 | 0.00 | 0.00 | 0.00 | 33 | 1005.2 |
| 20260509000500 | 61 | 218 | 0.9 | 4.3 | 0.00 | 0.00 | 0.00 | 32 | 1005.2 |
| 20260508235959 | 61 | 225 | 0.9 | 4.3 | 0.00 | 0.00 | 0.00 | 32 | 1005.4 |
| 20260508235459 | 60 | 229 | 0.9 | 4.3 | 0.00 | 0.00 | 0.00 | 32 | 1005.4 |
| 20260508234958 | 61 | 276 | 0.9 | 4.3 | 0.00 | 0.00 | 0.00 | 32 | 1005.4 |
| 20260508234500 | 61 | 260 | 1.7 | 7.8 | 0.00 | 0.00 | 0.00 | 33 | 1005.4 |
| 20260508233958 | 61 | 328 | 2.6 | 7.8 | 0.00 | 0.00 | 0.00 | 32 | 1005.4 |